Weather reports worldwide

Advertisment
Rimini, Italy (16149): temperature & dewpoint: 12.10.2018 19:00:00 - 18.10.2018 19:00:00 (CEST)Rimini, Italy (16149): wind speed: 12.10.2018 19:00:00 - 18.10.2018 19:00:00 (CEST)Rimini, Italy (16149): wind direction: 12.10.2018 19:00:00 - 18.10.2018 19:00:00 (CEST)Rimini, Italy (16149): reduced air pressure: 12.10.2018 19:00:00 - 18.10.2018 19:00:00 (CEST)Rimini, Italy (16149): visibility: 12.10.2018 19:00:00 - 18.10.2018 19:00:00 (CEST)Rimini, Italy (16149): precipitation: 12.10.2018 19:00:00 - 18.10.2018 19:00:00 (CEST)
Date & Time tt [°C] td [°C] ff [km/h] ff [kn] dd ppp [hPa] vv [km] rr [mm]
18.10.2018 19:00:00 - - - - - - - -
18.10.2018 18:00:00 19,0 16,0 5 3 NNE - 7 -
18.10.2018 17:00:00 19,6 15,8 8 4 N 1015,3 7 0,0
18.10.2018 16:00:00 21,0 15,0 11 6 NW - 8 -
18.10.2018 15:00:00 21,0 14,0 15 8 NNW - 10 -
18.10.2018 14:00:00 21,0 15,0 13 7 NNW - 6 -
18.10.2018 13:00:00 21,0 15,0 11 6 WNW - 6 -
18.10.2018 12:00:00 19,0 15,0 13 7 WNW - 4,5 -
18.10.2018 11:00:00 18,4 15,3 15 8 W 1016,9 4,5 0,0
18.10.2018 10:00:00 18,0 15,0 13 7 W - 4,5 -
18.10.2018 09:00:00 16,0 15,0 9 5 WSW - 3,5 -
18.10.2018 08:00:00 14,9 14,2 8 4 WSW 1016,7 2,5 -
18.10.2018 07:00:00 15,0 14,0 9 5 WSW - 2,6 -
18.10.2018 06:00:00 15,0 14,0 11 6 W - 3,2 -
18.10.2018 05:00:00 15,9 14,9 9 5 W 1016,5 3,2 0,0
18.10.2018 04:00:00 16,0 15,0 9 5 W - 3,5 -
18.10.2018 03:00:00 16,0 15,0 9 5 W - 3,5 -
18.10.2018 02:00:00 15,9 15,0 9 5 W 1017,8 4,1 -
18.10.2018 01:00:00 17,0 15,0 9 5 W - 4,4 -
18.10.2018 00:00:00 16,0 15,0 8 4 WSW - 4,7 -
17.10.2018 23:00:00 16,4 15,3 9 5 W 1018,4 4,0 0,0
17.10.2018 22:00:00 16,0 15,0 9 5 W - 4,0 -
17.10.2018 21:00:00 16,0 15,0 9 5 W - 3,5 -
17.10.2018 20:00:00 16,2 15,1 9 5 WSW 1018,1 3,5 -
17.10.2018 19:00:00 16,0 15,0 15 8 W - 2,0 -
17.10.2018 18:00:00 16,0 15,0 11 6 WSW - 2,0 -
17.10.2018 17:00:00 16,0 15,3 13 7 WSW 1017,7 1,5 0,0
17.10.2018 16:00:00 16,0 16,0 13 7 W - 1,5 -
17.10.2018 15:00:00 16,0 16,0 15 8 W - 1,5 -
17.10.2018 14:00:00 16,7 15,4 15 8 W 1018,6 3,0 -
17.10.2018 13:00:00 17,0 15,0 18 10 W - 3,0 -
17.10.2018 12:00:00 17,0 15,0 18 10 W - 3,5 -
17.10.2018 11:00:00 16,8 15,5 16 9 W 1019,3 3,0 0,0
17.10.2018 10:00:00 17,0 16,0 15 8 W - 2,5 -
17.10.2018 09:00:00 16,0 16,0 13 7 W - 2,5 -
17.10.2018 08:00:00 16,2 15,4 13 7 W 1019,0 2,8 -
17.10.2018 07:00:00 16,0 16,0 16 9 W - 2,8 -
17.10.2018 06:00:00 16,0 16,0 16 9 W - 2,6 -
17.10.2018 05:00:00 16,2 15,6 13 7 W 1018,7 3,0 0,0
17.10.2018 04:00:00 16,0 16,0 16 9 W - 3,0 -
17.10.2018 03:00:00 17,0 16,0 15 8 W - 4,2 -
17.10.2018 02:00:00 17,9 17,6 8 4 SW 1019,1 5 -
17.10.2018 01:00:00 19,0 18,0 11 6 E - 8 -
17.10.2018 00:00:00 18,0 18,0 11 6 NE - 3,8 -
16.10.2018 23:00:00 18,4 18,0 15 8 NNE 1019,7 3,0 0,0
16.10.2018 22:00:00 19,0 18,0 15 8 ENE - 3,0 -
16.10.2018 21:00:00 19,0 18,0 13 7 ENE - 4,0 -
16.10.2018 20:00:00 19,4 18,5 13 7 ENE 1019,5 4,0 -
16.10.2018 19:00:00 19,0 18,0 8 4 ENE - 6 -
16.10.2018 18:00:00 19,0 18,0 13 7 E - 3,0 -
16.10.2018 17:00:00 19,8 18,0 13 7 ENE 1019,4 5 0,0
16.10.2018 16:00:00 20,0 18,0 13 7 ENE - 7 -
16.10.2018 15:00:00 20,0 17,0 5 3 NE - 6 -
16.10.2018 14:00:00 19,7 17,2 9 5 N 1019,8 6 -
16.10.2018 13:00:00 20,0 17,0 9 5 N - 5 -
16.10.2018 12:00:00 19,0 17,0 5 3 WNW - 4,0 -
16.10.2018 11:00:00 18,1 16,2 5 3 W 1020,3 4,0 0,0
16.10.2018 10:00:00 18,0 16,0 8 4 W - 4,0 -
16.10.2018 09:00:00 17,0 16,0 5 3 WNW - 4,0 -
16.10.2018 08:00:00 16,6 15,5 4 2 SW 1019,3 4,0 -
16.10.2018 07:00:00 17,0 15,0 5 3 WSW - 6 -
16.10.2018 06:00:00 17,0 15,0 8 4 W - 5 -
16.10.2018 05:00:00 16,7 15,2 9 5 W 1019,0 6 0,0
16.10.2018 04:00:00 16,0 15,0 8 4 W - 6 -
16.10.2018 03:00:00 17,0 15,0 5 3 W - 8 -
16.10.2018 02:00:00 16,7 15,2 2 1 W 1019,5 8 -
16.10.2018 01:00:00 17,0 15,0 5 3 SSW - 8 -
16.10.2018 00:00:00 17,0 15,0 2 1 WSW - 9 -
15.10.2018 23:00:00 16,8 15,6 5 3 S 1019,5 8 0,0
15.10.2018 22:00:00 - - - - - - - -
15.10.2018 21:00:00 17,0 16,0 5 3 SE - 10 -
15.10.2018 20:00:00 18,3 15,9 9 5 ESE 1018,9 10 -
15.10.2018 19:00:00 19,0 16,0 15 8 ESE - 8 -
15.10.2018 18:00:00 20,0 17,0 15 8 E - 7 -
15.10.2018 17:00:00 19,4 16,0 9 5 E 1018,2 6 0,0
15.10.2018 16:00:00 20,0 16,0 11 6 ENE - 6 -
15.10.2018 15:00:00 19,0 17,0 8 4 N - 5 -
15.10.2018 14:00:00 19,2 16,0 11 6 N 1018,6 4,0 -
15.10.2018 13:00:00 19,0 16,0 9 5 N - 4,0 -
15.10.2018 12:00:00 18,0 15,0 5 3 NNE - 4,0 -
15.10.2018 11:00:00 16,9 14,6 8 4 WNW 1019,1 2,5 0,0
15.10.2018 10:00:00 15,0 15,0 2 1 - - 2,0 -
15.10.2018 09:00:00 14,0 14,0 2 1 - - 2,0 -
15.10.2018 08:00:00 12,5 12,2 2 1 - 1018,3 2,0 -
15.10.2018 07:00:00 12,0 12,0 2 1 - - 1,5 -
15.10.2018 06:00:00 12,0 12,0 5 3 S - 3,4 -
15.10.2018 05:00:00 11,7 11,3 4 2 S 1018,0 2,6 0,0
15.10.2018 04:00:00 10,0 10,0 4 2 WSW - 3,3 -
15.10.2018 03:00:00 11,0 11,0 4 2 - - 3,5 -
15.10.2018 02:00:00 12,0 11,6 5 3 S 1018,5 2,1 -
15.10.2018 01:00:00 12,0 12,0 4 2 SSW - 3,4 -
15.10.2018 00:00:00 12,0 12,0 4 2 SW - 2,0 -
14.10.2018 23:00:00 13,3 12,7 5 3 S 1018,5 3,0 0,0
14.10.2018 22:00:00 14,0 14,0 2 1 - - 3,0 -
14.10.2018 21:00:00 15,0 14,0 4 2 S - 3,0 -
14.10.2018 20:00:00 15,9 15,2 2 1 S 1018,4 4,0 -
14.10.2018 19:00:00 17,0 16,0 2 1 - - 5 -
14.10.2018 18:00:00 19,0 17,0 8 4 ENE - 8 -
14.10.2018 17:00:00 19,5 16,6 9 5 ENE 1018,1 8 0,0
14.10.2018 16:00:00 20,0 16,0 9 5 NE - 8 -
14.10.2018 15:00:00 20,0 16,0 11 6 N - 8 -
14.10.2018 14:00:00 19,8 14,8 13 7 N 1019,6 8 -
14.10.2018 13:00:00 20,0 13,0 11 6 N - 8 -
14.10.2018 12:00:00 20,0 13,0 9 5 WNW - 8 -
14.10.2018 11:00:00 18,3 12,1 15 8 W 1021,0 8 0,0
14.10.2018 10:00:00 16,0 12,0 5 3 W - 8 -
14.10.2018 09:00:00 13,0 12,0 5 3 SSW - 6 -
14.10.2018 08:00:00 11,0 10,1 5 3 SSW 1020,6 4,0 -
14.10.2018 07:00:00 11,0 10,0 9 5 S - 4,8 -
14.10.2018 06:00:00 11,0 10,0 5 3 SSW - 4,1 -
14.10.2018 05:00:00 11,3 10,7 4 2 S 1020,9 3,1 0,0
14.10.2018 04:00:00 12,0 11,0 4 2 - - 4,5 -
14.10.2018 03:00:00 12,0 11,0 5 3 SW - 4,8 -
14.10.2018 02:00:00 12,4 11,4 5 3 SSW 1021,6 4,7 -
14.10.2018 01:00:00 13,0 12,0 4 2 SSW - 4,8 -
14.10.2018 00:00:00 13,0 12,0 8 4 S - 4,7 -
13.10.2018 23:00:00 13,3 12,3 5 3 S 1022,4 4,0 0,0
13.10.2018 22:00:00 14,0 13,0 4 2 S - 3,5 -
13.10.2018 21:00:00 15,0 13,0 4 2 S - 6 -
13.10.2018 20:00:00 15,5 13,7 5 3 SSW 1022,5 6 -
13.10.2018 19:00:00 - - - - - - - -
13.10.2018 18:00:00 20,0 14,0 8 4 N - 8 -
13.10.2018 17:00:00 19,9 15,6 9 5 N 1022,2 7 0,0
13.10.2018 16:00:00 20,0 16,0 13 7 N - 6 -
13.10.2018 15:00:00 20,0 16,0 13 7 N - 6 -
13.10.2018 14:00:00 20,4 15,9 13 7 N 1023,4 5 -
13.10.2018 13:00:00 21,0 14,0 18 10 NW - 5 -
13.10.2018 12:00:00 20,0 15,0 16 9 W - 4,0 -
13.10.2018 11:00:00 19,4 15,0 21 11 W 1024,7 4,0 0,0
13.10.2018 10:00:00 18,0 15,0 15 8 WNW - 4,0 -
13.10.2018 09:00:00 16,0 14,0 9 5 WSW - 4,0 -
13.10.2018 08:00:00 13,9 12,5 5 3 SSW 1024,2 4,0 -
13.10.2018 07:00:00 14,0 12,0 4 2 S - 3,7 -
13.10.2018 06:00:00 14,0 13,0 5 3 SW - 4,3 -
13.10.2018 05:00:00 13,8 12,5 4 2 SW 1024,4 3,8 0,0
13.10.2018 04:00:00 14,0 13,0 5 3 SW - 4,5 -
13.10.2018 03:00:00 14,0 13,0 4 2 - - 3,6 -
13.10.2018 02:00:00 14,5 13,2 2 1 - 1025,1 4,0 -
13.10.2018 01:00:00 14,0 13,0 5 3 SW - 2,9 -
13.10.2018 00:00:00 14,0 14,0 4 2 SSW - 1,9 -
12.10.2018 23:00:00 14,4 13,7 5 3 SSW 1025,8 2,0 0,0
12.10.2018 22:00:00 15,0 14,0 8 4 SSW - 2,5 -
12.10.2018 21:00:00 15,0 15,0 4 2 S - 2,5 -
12.10.2018 20:00:00 16,3 15,4 5 3 SSW 1025,3 3,0 -
12.10.2018 19:00:00 18,0 16,0 4 2 SSW - 3,0 -

tt = temperature
td = dewpoint
ff = wind speed
dd = wind direction
ppp = reduced air pressure
vv = visibility
rr = precipitation

Next stations